Newberry, MI

12:21 AM EDT on June 29, 2017 (GMT -0400)
Luce County

Weather History for KERY - December, 2011

Change the Weather History Date:

Thursday, December 29, 2011

  Actual Average Record
Temperature  
Mean Temperature 20 °F -  
Max Temperature 28 °F 24 °F 44 °F (1979)
Min Temperature 12 °F 10 °F -17 °F (1976)
Degree Days  
Heating Degree Days 45    
Moisture  
Dew Point 19 °F    
Average Humidity 87    
Maximum Humidity 93    
Minimum Humidity 80    
Precipitation  
Precipitation 0.00 in - - ()
Sea Level Pressure  
Sea Level Pressure 29.68 in    
Wind  
Wind Speed 10 mph (East)    
Max Wind Speed 17 mph    
Max Gust Speed 23 mph    
Visibility 7 miles    
Events Snow    
Averages and records for this station are not official NWS values.
T = Trace of Precipitation, MM = Missing Value Source: NWS Daily Summary

Daily Weather History Graph

Daily Weather History Graph

Search for Another Location

Airport or City:

Trip Planner

Search our weather history database for the weather conditions in past years. The results will help you decide how hot, cold, wet, or windy it might be!

Date:

Astronomy

Dec. 29, 2011 Rise Set
Actual Time 8:24 AM EST 5:03 PM EST
Civil Twilight 7:49 AM EST 5:37 PM EST
Nautical Twilight 7:11 AM EST 6:16 PM EST
Astronomical Twilight 6:35 AM EST 6:52 PM EST
Moon 10:59 AM EST 10:59 PM EST
Length of Visible Light 9h 48m
Length of Day
8h 38m
Waxing Crescent, 26% of the Moon is Illuminated
Dec 29
Waxing Crescent
Jan 1
First Quarter
Jan 9
Full
Jan 16
Last Quarter
Jan 23
New

Hourly Weather History & Observations

Time (EST) Temp. Windchill Dew Point Humidity Pressure Visibility Wind Dir Wind Speed Gust Speed Precip Events Conditions
12:15 AM 12.2 °F 1.7 °F 8.6 °F 85% 29.86 in 10.0 mi ESE 6.9 mph - N/A Snow Light Snow
12:34 AM 12.2 °F 0.7 °F 10.4 °F 92% 29.85 in 10.0 mi East 8.1 mph - N/A Snow Light Snow
12:55 AM 14.0 °F 2.9 °F 10.4 °F 86% 29.85 in 4.0 mi East 8.1 mph - N/A Snow Light Snow
1:15 AM 15.8 °F 4.2 °F 12.2 °F 86% 29.84 in 7.0 mi East 9.2 mph - N/A Snow Light Snow
1:34 AM 15.8 °F 4.2 °F 12.2 °F 86% 29.83 in 10.0 mi ESE 9.2 mph - N/A Snow Light Snow
1:55 AM 15.8 °F 4.2 °F 12.2 °F 86% 29.83 in 10.0 mi ESE 9.2 mph - N/A Snow Light Snow
2:14 AM 15.8 °F 5.1 °F 12.2 °F 86% 29.82 in 10.0 mi ESE 8.1 mph - N/A   Overcast
2:34 AM 15.8 °F 3.4 °F 12.2 °F 86% 29.80 in 10.0 mi ESE 10.4 mph - N/A Snow Light Snow
2:55 AM 15.8 °F 2.1 °F 12.2 °F 86% 29.79 in 10.0 mi ESE 12.7 mph - N/A Snow Light Snow
3:14 AM 15.8 °F 2.1 °F 12.2 °F 86% 29.77 in 10.0 mi ESE 12.7 mph - N/A   Overcast
3:34 AM 15.8 °F 3.4 °F 14.0 °F 93% 29.77 in 10.0 mi East 10.4 mph - N/A Snow Light Snow
4:15 AM 17.6 °F 6.4 °F 14.0 °F 86% 29.75 in 10.0 mi East 9.2 mph - N/A   Overcast
4:35 AM 17.6 °F 8.2 °F 14.0 °F 86% 29.74 in 10.0 mi ESE 6.9 mph - N/A   Overcast
4:54 AM 17.6 °F 8.2 °F 15.8 °F 93% 29.73 in 10.0 mi ESE 6.9 mph - N/A   Overcast
5:15 AM 17.6 °F 6.4 °F 15.8 °F 93% 29.72 in 10.0 mi East 9.2 mph - N/A   Overcast
5:34 AM 17.6 °F 6.4 °F 15.8 °F 93% 29.72 in 10.0 mi ESE 9.2 mph - N/A   Overcast
6:15 AM 19.4 °F 9.5 °F 15.8 °F 86% 29.70 in 10.0 mi East 8.1 mph - N/A   Overcast
6:34 AM 17.6 °F 7.3 °F 15.8 °F 93% 29.69 in 10.0 mi East 8.1 mph - N/A   Overcast
7:14 AM 19.4 °F 8.6 °F 15.8 °F 86% 29.69 in 10.0 mi East 9.2 mph - N/A   Overcast
7:55 AM 19.4 °F 7.9 °F 15.8 °F 86% 29.68 in 10.0 mi East 10.4 mph - N/A   Overcast
8:14 AM 19.4 °F 7.9 °F 15.8 °F 86% 29.67 in 10.0 mi East 10.4 mph - N/A   Overcast
8:35 AM 19.4 °F 7.9 °F 17.6 °F 93% 29.67 in 10.0 mi East 10.4 mph - N/A   Overcast
8:55 AM 19.4 °F 8.6 °F 17.6 °F 93% 29.67 in 10.0 mi East 9.2 mph - N/A   Overcast
9:35 AM 21.2 °F 8.9 °F 19.4 °F 93% 29.67 in 2.5 mi East 12.7 mph - N/A Snow Light Snow
9:55 AM 21.2 °F 10.1 °F 19.4 °F 93% 29.67 in 3.0 mi East 10.4 mph - N/A Snow Light Snow
10:14 AM 23.0 °F 12.4 °F 19.4 °F 86% 29.66 in 7.0 mi East 10.4 mph - N/A Snow Light Snow
10:35 AM 24.8 °F 14.0 °F 21.2 °F 86% 29.66 in 5.0 mi ESE 11.5 mph - N/A   Overcast
10:54 AM 24.8 °F 14.6 °F 21.2 °F 86% 29.65 in 4.0 mi ESE 10.4 mph 16.1 mph N/A Snow Light Snow
11:15 AM 24.8 °F 14.0 °F 21.2 °F 86% 29.64 in 2.0 mi ESE 11.5 mph - N/A Snow Light Snow
11:34 AM 26.6 °F 15.7 °F 21.2 °F 80% 29.63 in 3.0 mi ESE 12.7 mph - N/A Snow Light Snow
12:15 PM 26.6 °F 16.2 °F 23.0 °F 86% 29.61 in 7.0 mi ESE 11.5 mph - N/A   Overcast
12:34 PM 26.6 °F 14.7 °F 23.0 °F 86% 29.60 in 10.0 mi ESE 15.0 mph - N/A   Overcast
12:55 PM 26.6 °F 15.2 °F 23.0 °F 86% 29.59 in 10.0 mi ESE 13.8 mph - N/A   Overcast
1:15 PM 28.4 °F 16.2 °F 24.8 °F 86% 29.59 in 10.0 mi East 17.3 mph 23.0 mph N/A   Overcast
1:34 PM 28.4 °F 19.1 °F 24.8 °F 86% 29.59 in 10.0 mi East 10.4 mph 18.4 mph N/A   Overcast
1:55 PM 28.4 °F 17.0 °F 24.8 °F 86% 29.59 in 10.0 mi East 15.0 mph 21.9 mph N/A   Overcast
2:14 PM 28.4 °F 16.6 °F 24.8 °F 86% 29.58 in 10.0 mi ESE 16.1 mph 20.7 mph N/A   Overcast
2:34 PM 28.4 °F 17.0 °F 24.8 °F 86% 29.58 in 10.0 mi East 15.0 mph 18.4 mph N/A   Overcast
2:55 PM 28.4 °F 18.5 °F 24.8 °F 86% 29.57 in 5.0 mi ESE 11.5 mph 21.9 mph N/A Snow Light Snow
3:14 PM 28.4 °F 18.5 °F 24.8 °F 86% 29.58 in 4.0 mi East 11.5 mph 17.3 mph N/A Snow Light Snow
3:55 PM 26.6 °F 16.2 °F 24.8 °F 93% 29.60 in 4.0 mi East 11.5 mph - N/A Snow Light Snow
4:14 PM 26.6 °F 15.7 °F 23.0 °F 86% 29.60 in 7.0 mi East 12.7 mph - N/A Snow Light Snow
4:35 PM 24.8 °F 14.6 °F 21.2 °F 86% 29.61 in 7.0 mi East 10.4 mph - N/A Snow Light Snow
4:54 PM 24.8 °F 14.0 °F 21.2 °F 86% 29.61 in 7.0 mi East 11.5 mph - N/A Snow Light Snow
5:14 PM 24.8 °F 14.6 °F 21.2 °F 86% 29.62 in 5.0 mi East 10.4 mph - N/A Snow Light Snow
5:34 PM 24.8 °F 14.6 °F 21.2 °F 86% 29.62 in 5.0 mi East 10.4 mph - N/A Snow Light Snow
5:55 PM 24.8 °F 14.0 °F 21.2 °F 86% 29.62 in 5.0 mi East 11.5 mph - N/A Snow Light Snow
6:14 PM 24.8 °F 13.4 °F 21.2 °F 86% 29.63 in 4.0 mi East 12.7 mph - N/A Snow Light Snow
6:34 PM 24.8 °F 15.3 °F 21.2 °F 86% 29.63 in 3.0 mi East 9.2 mph - N/A Snow Light Snow
6:55 PM 24.8 °F 15.3 °F 21.2 °F 86% 29.64 in 4.0 mi East 9.2 mph - N/A Snow Light Snow
7:14 PM 24.8 °F 15.3 °F 21.2 °F 86% 29.64 in 2.5 mi East 9.2 mph - N/A Snow Light Snow
7:35 PM 24.8 °F 16.9 °F 21.2 °F 86% 29.64 in 2.5 mi East 6.9 mph - N/A Snow Light Snow
7:55 PM 24.8 °F 16.1 °F 21.2 °F 86% 29.64 in 3.0 mi East 8.1 mph - N/A Snow Light Snow
8:14 PM 24.8 °F 16.9 °F 21.2 °F 86% 29.65 in 4.0 mi East 6.9 mph - N/A Snow Light Snow
8:35 PM 24.8 °F 16.9 °F 21.2 °F 86% 29.65 in 2.5 mi East 6.9 mph - N/A Snow Light Snow
8:54 PM 24.8 °F 16.9 °F 21.2 °F 86% 29.65 in 3.0 mi East 6.9 mph - N/A Snow Light Snow
9:35 PM 24.8 °F 15.3 °F 21.2 °F 86% 29.66 in 2.0 mi East 9.2 mph - N/A Snow Light Snow
9:54 PM 24.8 °F 16.1 °F 23.0 °F 93% 29.66 in 10.0 mi East 8.1 mph - N/A Snow Light Snow
10:15 PM 24.8 °F 16.1 °F 23.0 °F 93% 29.66 in 10.0 mi ESE 8.1 mph - N/A Snow Light Snow
10:35 PM 24.8 °F 15.3 °F 23.0 °F 93% 29.67 in 10.0 mi East 9.2 mph - N/A   Overcast
10:54 PM 24.8 °F 16.9 °F 23.0 °F 93% 29.67 in 10.0 mi East 6.9 mph - N/A   Overcast
11:15 PM 24.8 °F 16.9 °F 23.0 °F 93% 29.67 in 10.0 mi East 6.9 mph - N/A   Overcast
11:34 PM 24.8 °F 16.1 °F 23.0 °F 93% 29.67 in 10.0 mi East 8.1 mph - N/A   Overcast
11:55 PM 24.8 °F 16.9 °F 23.0 °F 93% 29.67 in 10.0 mi East 6.9 mph - N/A   Overcast